Weather History for Hattiesburg, MS

Change the Weather History Date:

Saturday, December 1, 2012

  Actual Average Record
Temperature  
Mean Temperature 58 °F 53 °F  
Max Temperature 75 °F 65 °F 80 °F (1950)
Min Temperature 41 °F 42 °F 21 °F (1976)
Degree Days  
Heating Degree Days 7 12  
Month to date heating degree days 7 12  
Since 1 July heating degree days 392 340  
Cooling Degree Days 0 1  
Month to date cooling degree days 0 1  
Year to date cooling degree days 2714 2391  
Growing Degree Days 8 (Base 50)    
Moisture  
Dew Point 51 °F    
Average Humidity 79    
Maximum Humidity 100    
Minimum Humidity 57    
Precipitation  
Precipitation 0.00 in 0.15 in 1.80 in (1968)
Month to date precipitation 0.00 0.15  
Year to date precipitation 60.84 54.41  
Sea Level Pressure  
Sea Level Pressure 30.25 in    
Wind  
Wind Speed 1 mph (SSE)    
Max Wind Speed 13 mph    
Max Gust Speed -    
Visibility 5 miles    
Events Fog    
T = Trace of Precipitation, MM = Missing Value Source: NWS Daily Summary

Daily Weather History Graph

Daily Weather History Graph

Search for Another Location

Airport:

Trip Planner

Search our weather history database for the weather conditions in past years. The results will help you decide how hot, cold, wet, or windy it might be!

Date:

Astronomy

Dec. 01, 2012 Rise Set
Actual Time 6:38 AM CST 4:54 PM CST
Civil Twilight 6:12 AM CST 5:20 PM CST
Nautical Twilight 5:42 AM CST 5:50 PM CST
Astronomical Twilight 5:12 AM CST 6:19 PM CST
Moon 7:40 PM CST (12/1) 8:53 AM CST (12/1)
Length of Visible Light 11h 08m
Length of Day
10h 15m
Waning Gibbous, 91% of the Moon is Illuminated
Dec 1
Waning Gibbous
Dec 6
Last Quarter
Dec 13
New
Dec 19
First Quarter
Dec 28
Full

Hourly Weather History & Observations

Time (CST) Temp. Dew Point Humidity Pressure Visibility Wind Dir Wind Speed Gust Speed Precip Events Conditions
1:53 AM 43.0 °F 39.9 °F 89% 30.23 in 10.0 mi Calm Calm - N/A   Clear
2:14 AM 42.8 °F 39.2 °F 87% 30.24 in 10.0 mi Calm Calm - N/A   Scattered Clouds
2:23 AM 42.8 °F 41.0 °F 93% 30.24 in 10.0 mi Calm Calm - N/A   Mostly Cloudy
2:53 AM 42.1 °F 39.9 °F 92% 30.23 in 1.0 mi Calm Calm - N/A   Overcast
2:59 AM 42.8 °F 41.0 °F 93% 30.24 in 0.2 mi Calm Calm - N/A Fog Fog
3:09 AM 42.8 °F 41.0 °F 93% 30.24 in 0.5 mi Calm Calm - N/A Fog Fog
3:26 AM 44.6 °F 42.8 °F 93% 30.24 in 0.2 mi Calm Calm - N/A Fog Fog
3:53 AM 44.1 °F 42.1 °F 93% 30.24 in 0.2 mi Calm Calm - N/A Fog Fog
4:53 AM 44.1 °F 42.1 °F 93% 30.24 in 0.2 mi Calm Calm - N/A Fog Fog
5:45 AM 44.6 °F 42.8 °F 93% 30.25 in 0.5 mi Calm Calm - N/A Fog Fog
5:53 AM 44.1 °F 43.0 °F 96% 30.25 in 0.2 mi Calm Calm - N/A Fog Fog
6:12 AM 44.6 °F 42.8 °F 93% 30.26 in 0.5 mi Calm Calm - N/A Fog Fog
7:53 AM 46.9 °F 46.0 °F 97% 30.28 in 0.2 mi Calm Calm - N/A Fog Fog
8:53 AM 50.0 °F 48.9 °F 96% 30.30 in 0.2 mi Calm Calm - N/A Fog Fog
9:53 AM 54.0 °F 53.1 °F 97% 30.30 in 0.2 mi Calm Calm - N/A Fog Fog
10:45 AM 57.2 °F 55.4 °F 94% 30.30 in 0.8 mi Calm Calm - N/A   Mist
10:53 AM 59.0 °F 57.0 °F 93% 30.30 in 1.5 mi Calm Calm - N/A   Overcast
10:59 AM 59.0 °F 57.2 °F 94% 30.30 in 3.0 mi Calm Calm - N/A   Overcast
11:40 AM 64.4 °F 59.0 °F 83% 30.28 in 8.0 mi Variable 3.5 mph - N/A   Overcast
12:44 PM 69.8 °F 60.8 °F 73% 30.24 in 10.0 mi South 4.6 mph - N/A   Mostly Cloudy
12:53 PM 72.0 °F 59.0 °F 64% 30.23 in 10.0 mi SSE 5.8 mph - N/A   Mostly Cloudy
1:12 PM 71.6 °F 57.2 °F 60% 30.23 in 10.0 mi SE 3.5 mph - N/A   Mostly Cloudy
1:53 PM 73.0 °F 57.9 °F 59% 30.21 in 10.0 mi SE 5.8 mph - N/A   Scattered Clouds
2:53 PM 73.9 °F 57.0 °F 55% 30.20 in 10.0 mi South 5.8 mph - N/A   Clear
3:53 PM 73.0 °F 57.9 °F 59% 30.20 in 10.0 mi SE 4.6 mph - N/A   Clear
4:53 PM 68.0 °F 59.0 °F 73% 30.21 in 10.0 mi SSE 4.6 mph - N/A   Clear
5:53 PM 62.1 °F 57.9 °F 86% 30.22 in 10.0 mi Calm Calm - N/A   Clear
6:53 PM 60.1 °F 55.9 °F 86% 30.23 in 10.0 mi South 4.6 mph - N/A   Clear
7:53 PM 57.0 °F 55.0 °F 93% 30.24 in 10.0 mi Calm Calm - N/A   Clear
8:53 PM 57.0 °F 54.0 °F 89% 30.24 in 10.0 mi Calm Calm - N/A   Mostly Cloudy
9:53 PM 57.0 °F 53.1 °F 87% 30.25 in 9.0 mi Calm Calm - N/A   Scattered Clouds
10:47 PM 55.4 °F 53.6 °F 94% 30.25 in 1.8 mi Calm Calm - N/A   Clear
10:53 PM 54.0 °F 53.1 °F 97% 30.25 in 0.8 mi Calm Calm - N/A   Mist
11:03 PM 53.6 °F 51.8 °F 94% 30.25 in 2.0 mi Calm Calm - N/A   Mostly Cloudy
11:11 PM 53.6 °F 51.8 °F 94% 30.25 in 5.0 mi Calm Calm - N/A   Scattered Clouds
11:46 PM 53.6 °F 50.0 °F 88% 30.24 in 10.0 mi Calm Calm - N/A   Mostly Cloudy
11:53 PM 53.1 °F 51.1 °F 93% 30.24 in 10.0 mi Calm Calm - N/A   Mostly Cloudy